Temp
-12 -12 -12 -11 -12 -11 -11 -11 -10 -10 -10 -8 -9 -8 -9 -8 -7 -6 -6 -7 -6 -4 -4 -5 -5 -6 -7 -5 -6 -6 -4 -4 -4 -4 -4 -5 -5 -5 -5 -5 -6 -6 -6 -6
-12 -12 -13 -12 -11 -12 -11 -10 -10 -10 -10 -8 -9 -9 -8 -8 -9 -9 -7 -7 -7 -6 -7 -6 -8 -7 -7 -7 -6 -6 -6 -5 -5 -5 -5 -5 -5 -6 -6 -6 -6 -6 -6 -6
-13 -12 -12 -12 -12 -12 -12 -11 -10 -10 -10 -9 -9 -9 -8 -9 -9 -9 -9 -8 -7 -7 -7 -7 -7 -8 -7 -7 -6 -6 -6 -5 -5 -6 -6 -6 -6 -6 -6 -6 -6 -6 -6 -6
-12 -12 -13 -13 -12 -11 -12 -12 -12 -12 -9 -10 -10 -10 -10 -11 -10 -10 -9 -9 -10 -8 -10 -9 -9 -7 -6 -6 -6 -6 -6 -6 -5 -5 -6 -6 -6 -6 -6 -6 -6 -6 -6 -6
-12 -13 -13 -13 -13 -13 -13 -12 -12 -12 -11 -11 -10 -10 -10 -11 -10 -10 -9 -9 -10 -10 -10 -9 -8 -6 -6 -7 -6 -6 -6 -6 -6 -6 -6 -6 -6 -6 -6 -6 -6 -6 -6 -6
-12 -13 -14 -14 -14 -13 -13 -13 -12 -11 -12 -11 -9 -10 -12 -11 -10 -9 -9 -9 -10 -10 -10 -9 -8 -7 -6 -6 -6 -6 -6 -6 -6 -6 -7 -7 -6 -6 -6 -6 -6 -6 -6 -6
-13 -13 -13 -14 -13 -12 -13 -14 -12 -12 -12 -12 -11 -9 -12 -11 -10 -10 -10 -9 -10 -10 -10 -10 -9 -8 -8 -7 -7 -7 -7 -7 -7 -7 -7 -7 -7 -7 -7 -7 -6 -6 -6 -6
-15 -14 -14 -14 -13 -13 -12 -12 -13 -12 -12 -12 -10 -11 -14 -13 -11 -11 -11 -10 -10 -10 -10 -10 -10 -9 -9 -9 -9 -10 -9 -9 -9 -8 -8 -8 -8 -8 -8 -7 -7 -7 -7 -7
-15 -14 -13 -13 -13 -13 -13 -13 -13 -13 -12 -12 -13 -12 -12 -14 -13 -12 -12 -11 -11 -11 -11 -11 -10 -10 -10 -10 -11 -11 -10 -10 -9 -10 -10 -9 -9 -9 -8 -8 -8 -8 -8 -8
-13 -14 -14 -13 -13 -13 -14 -14 -14 -14 -14 -13 -13 -13 -13 -13 -13 -13 -12 -12 -11 -11 -12 -12 -11 -10 -10 -10 -10 -11 -10 -10 -9 -10 -10 -9 -9 -8 -8 -8 -8 -8 -8 -8
-13 -13 -13 -14 -15 -14 -14 -14 -14 -14 -14 -14 -14 -14 -14 -13 -13 -13 -13 -13 -13 -12 -12 -11 -12 -11 -10 -11 -10 -9 -9 -10 -9 -10 -10 -9 -9 -9 -9 -9 -9 -9 -8 -8
-13 -14 -14 -14 -15 -15 -15 -14 -14 -15 -15 -14 -15 -15 -14 -14 -14 -14 -14 -13 -13 -13 -12 -11 -11 -11 -11 -11 -11 -10 -9 -9 -9 -9 -9 -9 -9 -9 -9 -9 -9 -9 -9 -9
-13 -14 -14 -15 -15 -16 -16 -16 -15 -15 -15 -15 -15 -15 -15 -14 -14 -14 -14 -14 -13 -13 -12 -12 -12 -11 -11 -12 -11 -11 -10 -10 -9 -10 -9 -9 -9 -9 -9 -9 -9 -9 -9 -9
-14 -14 -14 -15 -15 -17 -17 -15 -16 -16 -16 -15 -15 -15 -15 -15 -15 -15 -14 -14 -13 -13 -12 -12 -12 -12 -11 -11 -11 -11 -10 -10 -10 -10 -10 -9 -9 -9 -9 -9 -9 -9 -9 -9
-14 -14 -15 -15 -15 -15 -16 -17 -16 -16 -16 -15 -15 -15 -15 -15 -15 -14 -14 -14 -14 -14 -13 -13 -12 -12 -11 -11 -11 -10 -10 -10 -10 -10 -10 -10 -10 -10 -10 -10 -10 -9 -10 -10
-14 -14 -15 -15 -15 -17 -16 -16 -16 -16 -16 -16 -16 -15 -15 -15 -14 -14 -14 -15 -14 -14 -14 -13 -13 -12 -12 -11 -11 -11 -11 -10 -10 -10 -10 -11 -11 -10 -10 -10 -11 -11 -11 -11
-14 -14 -15 -15 -15 -15 -15 -16 -16 -15 -16 -16 -15 -16 -15 -15 -15 -15 -15 -15 -15 -14 -14 -13 -13 -13 -12 -12 -12 -11 -11 -11 -11 -11 -11 -11 -11 -11 -11 -11 -11 -11 -11 -11
-13 -14 -14 -15 -14 -15 -14 -15 -15 -15 -15 -15 -16 -16 -16 -16 -15 -15 -15 -15 -14 -14 -14 -13 -13 -13 -13 -12 -12 -12 -12 -12 -12 -12 -12 -12 -12 -12 -12 -12 -12 -12 -12 -12
-13 -13 -14 -15 -14 -15 -15 -15 -15 -15 -15 -15 -16 -17 -16 -16 -15 -15 -15 -14 -14 -14 -13 -13 -13 -13 -13 -13 -13 -13 -13 -13 -13 -12 -13 -13 -13 -13 -13 -13 -13 -13 -13 -12
-13 -13 -14 -14 -14 -15 -15 -15 -15 -15 -15 -15 -15 -15 -16 -16 -15 -15 -15 -14 -14 -14 -14 -14 -14 -14 -13 -13 -13 -13 -13 -13 -13 -13 -13 -14 -13 -13 -13 -13 -13 -13 -13 -13
-13 -13 -14 -14 -14 -14 -15 -15 -15 -15 -15 -15 -15 -15 -15 -15 -15 -15 -14 -14 -14 -14 -14 -14 -14 -14 -14 -14 -14 -14 -14 -14 -14 -14 -14 -14 -13 -13 -13 -13 -13 -14 -13 -14
-13 -13 -13 -14 -14 -14 -14 -14 -14 -14 -14 -15 -15 -15 -15 -15 -15 -15 -15 -14 -14 -14 -14 -14 -14 -14 -14 -14 -14 -14 -14 -14 -14 -14 -14 -14 -14 -14 -14 -14 -14 -14 -14 -14
-13 -13 -14 -14 -14 -14 -14 -14 -14 -14 -14 -14 -14 -15 -15 -14 -14 -14 -14 -14 -14 -14 -14 -14 -14 -14 -14 -14 -14 -14 -14 -14 -14 -15 -15 -15 -15 -15 -14 -15 -15 -15 -15 -15
-13 -13 -13 -14 -14 -14 -14 -14 -14 -14 -14 -14 -14 -14 -14 -14 -14 -14 -14 -14 -14 -14 -14 -14 -14 -14 -14 -14 -15 -15 -15 -15 -15 -15 -15 -14 -15 -15 -15 -15 -15 -15 -15 -15
-13 -13 -13 -13 -14 -14 -14 -14 -14 -14 -14 -14 -14 -14 -14 -14 -14 -14 -14 -14 -14 -14 -14 -14 -14 -15 -14 -15 -15 -15 -15 -15 -15 -15 -15 -15 -15 -15 -15 -15 -15 -16 -16 -16
-13 -13 -13 -13 -14 -14 -14 -14 -14 -14 -14 -14 -14 -14 -14 -14 -14 -14 -14 -14 -14 -14 -14 -14 -15 -15 -15 -15 -15 -15 -15 -15 -15 -15 -16 -16 -16 -16 -16 -16 -16 -16 -17 -17
-13 -13 -14 -14 -14 -14 -14 -14 -14 -14 -14 -14 -14 -14 -14 -14 -14 -14 -14 -14 -15 -15 -14 -15 -15 -15 -15 -15 -15 -15 -15 -16 -16 -16 -16 -16 -16 -16 -16 -17 -17 -17 -17 -17
Height
5837 5835 5835 5835 5836 5834 5839 5840 5840 5842 5846 5841 5839 5835 5840 5844 5849 5853 5854 5854 5856 5852 5857 5867 5877 5880 5884 5891 5889 5888 5900 5904 5907 5909 5912 5914 5917 5919 5920 5922 5922 5923 5924 5925
5833 5834 5836 5837 5836 5837 5835 5836 5832 5835 5835 5838 5836 5830 5837 5839 5844 5848 5848 5848 5851 5853 5858 5857 5862 5871 5879 5883 5887 5892 5893 5897 5901 5905 5907 5908 5911 5912 5914 5916 5917 5918 5919 5920
5827 5831 5828 5833 5832 5835 5835 5833 5824 5829 5832 5830 5830 5833 5829 5834 5839 5844 5847 5845 5844 5846 5846 5850 5856 5866 5870 5875 5877 5884 5885 5888 5891 5896 5899 5901 5904 5905 5907 5908 5910 5912 5913 5914
5821 5824 5826 5831 5831 5829 5829 5833 5831 5826 5825 5822 5823 5824 5827 5830 5837 5841 5843 5843 5841 5841 5842 5851 5855 5858 5863 5865 5869 5872 5876 5878 5881 5886 5891 5893 5895 5898 5901 5902 5903 5904 5905 5906
5816 5818 5823 5826 5823 5821 5819 5825 5824 5823 5812 5810 5820 5824 5823 5829 5831 5838 5839 5839 5841 5842 5842 5844 5847 5849 5853 5856 5860 5866 5867 5869 5873 5878 5882 5886 5887 5889 5891 5893 5894 5896 5896 5897
5811 5812 5816 5819 5812 5813 5818 5820 5814 5817 5815 5809 5815 5816 5817 5821 5825 5828 5834 5835 5838 5839 5841 5842 5843 5846 5847 5850 5855 5855 5857 5863 5865 5870 5873 5876 5878 5880 5881 5883 5886 5887 5888 5888
5807 5808 5811 5806 5802 5809 5812 5809 5804 5813 5813 5813 5814 5795 5805 5815 5818 5822 5824 5828 5831 5832 5834 5835 5837 5843 5843 5844 5847 5849 5853 5855 5858 5861 5865 5868 5869 5870 5871 5873 5875 5877 5878 5879
5803 5803 5805 5797 5799 5802 5802 5800 5798 5800 5804 5803 5805 5798 5795 5805 5805 5811 5816 5821 5824 5826 5828 5829 5832 5834 5838 5841 5842 5845 5849 5852 5852 5855 5859 5862 5863 5865 5865 5865 5866 5867 5868 5870
5795 5793 5793 5791 5791 5791 5794 5794 5790 5788 5790 5792 5795 5796 5793 5794 5798 5802 5807 5811 5816 5821 5822 5824 5827 5830 5835 5837 5840 5842 5844 5847 5849 5851 5853 5856 5857 5859 5861 5861 5861 5862 5862 5862
5788 5789 5784 5784 5783 5784 5785 5786 5785 5782 5780 5778 5783 5788 5789 5792 5796 5797 5800 5802 5806 5812 5816 5819 5823 5826 5829 5833 5834 5839 5840 5842 5844 5845 5848 5851 5852 5853 5854 5854 5855 5856 5856 5854
5781 5782 5780 5777 5773 5772 5773 5771 5773 5773 5768 5773 5772 5778 5781 5783 5786 5789 5793 5796 5800 5804 5809 5814 5817 5820 5823 5825 5828 5832 5833 5835 5838 5840 5843 5845 5845 5846 5846 5847 5847 5848 5848 5847
5774 5773 5768 5769 5762 5761 5762 5759 5763 5763 5762 5764 5765 5769 5773 5775 5778 5782 5785 5790 5794 5797 5801 5806 5809 5812 5816 5818 5821 5824 5828 5829 5831 5833 5834 5836 5837 5837 5837 5838 5839 5839 5839 5839
5767 5765 5762 5758 5748 5751 5748 5742 5754 5754 5757 5757 5758 5762 5764 5766 5770 5773 5778 5782 5787 5790 5793 5797 5801 5805 5809 5812 5815 5818 5820 5822 5824 5825 5826 5827 5829 5829 5829 5830 5829 5829 5829 5829
5760 5756 5752 5749 5742 5740 5736 5735 5741 5746 5750 5750 5752 5755 5757 5760 5764 5767 5770 5773 5778 5783 5786 5788 5792 5797 5801 5805 5808 5810 5812 5813 5814 5816 5819 5819 5820 5820 5820 5821 5820 5820 5819 5818
5753 5747 5741 5738 5737 5734 5736 5735 5738 5739 5742 5745 5747 5749 5751 5753 5757 5761 5764 5767 5771 5776 5779 5781 5784 5789 5792 5796 5799 5801 5804 5805 5807 5809 5809 5810 5811 5812 5811 5810 5810 5810 5809 5808
5746 5741 5733 5730 5725 5719 5728 5730 5734 5737 5737 5740 5743 5744 5746 5748 5752 5755 5759 5762 5765 5770 5774 5777 5780 5783 5786 5788 5790 5793 5795 5796 5798 5799 5800 5800 5800 5800 5801 5801 5801 5801 5800 5799
5743 5737 5731 5729 5724 5712 5729 5730 5731 5732 5734 5737 5739 5739 5741 5743 5747 5751 5754 5757 5760 5764 5768 5771 5773 5776 5777 5780 5782 5785 5786 5788 5789 5790 5790 5791 5791 5791 5792 5792 5793 5793 5791 5790
5740 5736 5732 5727 5726 5715 5720 5730 5731 5731 5733 5735 5735 5734 5737 5740 5743 5747 5750 5753 5757 5760 5763 5766 5768 5770 5772 5774 5776 5777 5779 5780 5781 5782 5782 5782 5783 5784 5784 5784 5782 5781 5780 5779
5738 5736 5733 5729 5728 5714 5721 5728 5729 5732 5734 5733 5733 5733 5734 5738 5741 5744 5747 5750 5753 5756 5758 5761 5762 5764 5766 5767 5769 5771 5772 5774 5774 5774 5775 5774 5775 5774 5774 5774 5773 5773 5772 5773
5737 5735 5733 5729 5727 5729 5729 5728 5732 5734 5734 5734 5734 5735 5737 5739 5741 5744 5746 5748 5751 5753 5755 5758 5759 5761 5763 5764 5765 5766 5766 5767 5767 5768 5769 5768 5768 5767 5767 5766 5766 5765 5765 5763
5734 5734 5733 5732 5729 5729 5729 5730 5732 5733 5734 5734 5735 5736 5738 5739 5741 5744 5746 5748 5749 5751 5754 5755 5757 5758 5759 5759 5760 5761 5761 5761 5762 5762 5761 5760 5760 5759 5758 5758 5758 5757 5755 5752
5732 5732 5732 5732 5732 5731 5731 5732 5732 5733 5733 5734 5735 5736 5738 5739 5741 5742 5744 5746 5748 5749 5750 5751 5752 5752 5753 5754 5754 5754 5754 5754 5754 5754 5753 5753 5752 5752 5750 5749 5747 5745 5745 5743
5729 5729 5730 5730 5730 5731 5731 5731 5732 5732 5733 5734 5735 5736 5737 5738 5739 5741 5742 5744 5745 5745 5746 5747 5747 5748 5748 5749 5749 5748 5747 5745 5745 5746 5745 5744 5744 5742 5742 5741 5738 5736 5734 5732
5726 5726 5727 5728 5728 5729 5730 5730 5731 5731 5732 5733 5734 5735 5736 5737 5738 5740 5741 5742 5743 5743 5744 5744 5743 5743 5742 5741 5740 5740 5739 5738 5737 5736 5736 5735 5736 5734 5732 5731 5730 5727 5724 5721
5722 5723 5723 5724 5725 5726 5727 5728 5728 5729 5730 5732 5733 5734 5735 5736 5737 5738 5738 5738 5738 5738 5738 5737 5737 5736 5735 5734 5733 5732 5730 5730 5730 5729 5728 5727 5724 5723 5721 5719 5719 5716 5714 5712
5716 5718 5719 5720 5721 5722 5723 5724 5724 5726 5727 5728 5729 5730 5730 5731 5731 5731 5731 5733 5731 5732 5732 5730 5730 5729 5728 5726 5725 5725 5724 5723 5722 5721 5719 5718 5716 5713 5711 5710 5707 5706 5703 5701
5709 5711 5713 5714 5715 5716 5717 5718 5719 5720 5721 5722 5723 5723 5724 5724 5723 5723 5723 5723 5724 5721 5721 5725 5720 5718 5718 5718 5716 5716 5713 5713 5712 5710 5708 5708 5706 5703 5701 5700 5698 5696 5694 5691
Wind_Speed
7 22 17 16 18 19 15 8 31 23 13 15 22 16 22 20 21 31 30 34 31 32 49 46 41 48 39 40 36 23 29 30 28 27 25 24 24 23 23 22 22 21 21 22
17 10 13 17 15 21 18 27 16 16 23 29 28 18 20 22 22 13 18 27 33 38 28 56 45 46 42 42 43 39 38 37 33 29 29 29 28 26 26 26 26 25 27 28
12 10 9 19 12 13 19 30 19 13 26 30 30 33 18 22 22 23 21 16 27 21 21 23 24 34 36 40 43 41 42 39 36 34 33 32 32 31 31 31 30 30 30 30
19 17 16 10 20 24 25 29 36 39 36 46 33 29 21 15 20 22 27 21 14 16 19 21 30 28 30 34 40 41 43 42 37 38 36 35 36 36 35 34 32 31 32 33
20 16 11 11 22 17 23 28 36 34 42 40 31 24 19 19 21 26 27 27 24 21 24 21 15 28 27 28 38 40 39 46 38 42 39 39 40 40 39 37 36 35 35 32
19 20 13 13 30 32 27 26 33 37 41 45 35 33 15 22 27 30 33 33 28 28 26 22 18 19 30 35 38 40 50 50 46 40 35 36 44 45 40 39 39 38 38 40
17 17 16 25 36 28 27 33 37 29 33 39 40 22 20 28 31 31 32 35 31 28 27 25 18 22 15 13 27 31 39 18 29 44 40 28 28 29 33 38 42 41 40 35
17 17 21 34 35 33 34 36 36 36 34 34 39 32 26 27 33 34 30 30 31 28 28 24 19 17 20 12 12 14 14 11 12 17 22 33 38 22 20 19 23 28 33 34
24 28 29 30 33 37 29 29 34 37 39 35 44 40 21 28 28 33 31 30 32 29 26 22 22 23 22 22 15 20 18 15 17 17 13 12 14 18 17 14 14 13 15 20
21 23 32 34 39 38 38 37 35 39 39 40 42 35 29 30 29 31 32 32 29 27 26 26 26 26 25 25 21 22 24 24 23 22 20 23 25 24 23 20 20 20 21 20
21 21 28 35 39 41 38 38 34 34 43 33 37 33 28 30 32 33 34 36 36 34 32 29 30 31 32 29 27 28 27 29 30 29 30 29 28 27 26 26 26 28 29 28
22 25 35 32 38 37 26 33 33 32 35 33 33 28 29 31 31 32 31 37 38 40 37 34 33 33 34 32 31 30 30 31 32 32 33 33 32 31 31 32 32 34 33 32
22 27 30 32 39 36 34 13 27 30 30 31 33 26 27 29 29 28 32 38 37 38 39 34 41 38 34 33 36 32 30 29 30 29 30 30 31 31 31 33 31 32 33 35
21 26 27 24 32 29 30 18 20 27 25 28 30 27 25 26 27 24 27 30 34 35 33 35 40 35 32 31 35 33 33 33 34 34 34 35 35 35 35 36 37 40 40 41
20 23 23 25 23 26 18 23 22 23 20 23 27 26 24 25 25 26 21 28 30 27 27 29 30 26 32 34 35 36 37 34 34 35 36 38 41 41 40 41 41 39 38 37
18 18 22 20 22 22 27 15 20 22 20 20 20 19 22 22 24 24 24 22 23 31 29 28 29 31 34 34 34 34 35 36 37 37 36 34 34 33 32 30 29 28 27 27
15 15 16 17 12 3 2 15 16 16 16 19 18 17 19 20 21 20 18 18 18 22 24 24 23 23 26 28 28 29 29 28 28 27 26 25 25 25 25 27 26 26 28 27
12 12 10 11 7 12 5 12 14 12 15 16 17 20 19 19 19 18 18 19 19 19 19 19 18 18 18 19 18 19 20 21 22 23 23 24 26 28 29 28 27 26 23 23
9 12 8 8 5 12 7 10 11 14 15 12 10 8 16 10 16 19 17 18 18 19 19 19 19 18 19 20 21 22 23 24 25 26 25 24 25 25 24 23 23 24 25 26
6 8 9 6 9 4 6 8 9 12 10 10 9 8 7 10 12 15 17 16 16 15 15 16 15 16 16 17 17 18 17 17 17 17 18 20 21 22 24 26 28 29 30 31
6 5 5 5 3 2 1 7 10 11 9 8 7 8 7 8 9 9 9 9 9 10 10 10 10 11 11 14 16 17 19 20 21 22 23 23 24 24 25 26 25 27 29 31
9 7 6 4 2 1 2 3 5 6 7 7 7 6 6 7 7 7 6 6 6 6 7 9 12 14 16 18 21 24 27 30 31 30 29 27 26 25 26 27 29 30 30 32
12 11 10 8 7 6 5 3 3 5 6 6 6 5 5 5 4 3 3 3 5 8 9 12 16 17 19 21 24 25 25 26 27 26 27 27 28 30 30 28 29 34 33 33
17 15 14 13 11 10 10 8 7 7 6 5 4 5 6 5 5 6 7 9 11 14 13 16 18 20 21 21 21 23 24 23 22 23 24 26 27 29 32 31 31 33 34 33
22 20 17 17 16 15 13 12 13 13 12 10 10 11 12 13 14 15 16 16 19 19 18 21 21 21 21 20 18 20 21 22 22 26 28 30 32 31 32 34 33 32 32 33
27 24 22 20 19 19 19 19 19 19 18 18 18 18 19 20 20 21 22 21 24 24 23 25 24 24 23 23 22 22 25 27 30 33 35 32 29 31 33 32 32 33 35 35
31 29 26 24 22 21 21 20 21 22 22 22 23 23 24 25 25 26 27 26 25 27 28 26 31 31 29 28 26 27 34 32 29 29 28 30 32 31 30 29 32 36 34 34
Wind_Direction
237 288 299 297 268 263 244 265 234 241 287 261 251 216 219 213 235 245 233 227 200 185 197 223 205 226 226 224 235 221 235 240 242 242 243 247 250 252 255 256 256 257 258 260
261 261 291 277 268 237 251 243 221 266 257 236 267 251 219 220 253 245 229 218 224 234 225 208 220 224 225 229 231 241 242 242 245 249 253 254 251 252 254 256 257 257 260 263
241 238 273 239 271 240 246 264 282 282 244 247 264 245 211 227 242 247 243 200 207 222 212 204 210 232 235 231 238 235 243 243 245 248 250 254 258 254 254 256 261 267 265 266
256 230 236 272 249 236 246 242 256 268 254 247 256 279 242 242 243 237 240 240 240 258 276 211 222 230 237 241 237 243 244 248 246 248 247 253 259 257 260 262 263 269 274 273
250 251 262 264 260 244 243 239 240 244 253 266 260 266 232 241 257 254 247 246 247 250 265 254 242 229 220 232 231 233 246 247 256 255 254 255 254 259 258 259 254 268 267 279
248 243 244 256 259 257 266 268 251 242 254 262 252 256 217 235 237 247 258 253 253 255 257 264 254 236 223 225 226 226 236 246 249 253 256 259 258 252 252 259 258 266 268 276
249 254 265 251 252 259 266 260 257 256 250 253 252 277 255 244 244 239 243 255 255 257 257 260 265 225 207 206 223 235 237 238 241 243 249 254 268 267 268 264 268 267 268 277
243 245 238 250 265 266 266 275 277 264 253 256 240 263 225 225 225 231 232 239 251 253 249 254 259 261 265 250 260 276 253 249 255 232 245 254 256 252 263 268 270 265 265 265
227 230 245 257 262 268 272 272 274 274 263 245 236 249 256 221 219 219 219 226 237 243 245 244 243 252 260 268 258 265 262 268 276 284 290 279 261 269 281 260 273 277 274 262
253 252 267 269 268 268 273 274 271 273 270 271 261 258 261 254 236 229 223 220 222 233 236 242 246 242 246 256 265 267 262 262 254 260 264 266 260 262 264 266 270 269 270 277
270 269 264 264 272 277 273 267 262 263 269 268 262 253 248 243 236 229 229 228 227 227 231 238 239 244 243 245 250 258 260 254 254 252 250 252 255 260 261 263 262 264 267 270
276 280 284 289 279 276 265 266 256 253 259 264 254 246 238 242 244 237 234 232 231 231 232 231 241 240 245 243 243 242 249 250 252 254 253 254 256 256 258 262 264 268 271 272
285 285 285 282 277 280 287 238 248 260 254 250 246 238 239 240 243 240 237 235 235 237 239 237 242 239 246 242 238 238 243 246 247 252 255 256 259 261 262 266 264 268 272 276
289 292 289 281 275 267 289 289 256 246 241 238 233 234 235 238 239 241 241 238 239 241 243 242 230 231 235 241 239 237 246 249 251 250 252 253 257 259 261 265 267 271 274 278
303 307 288 288 277 252 240 249 247 240 236 237 229 228 234 235 235 237 247 235 232 233 235 237 230 231 239 239 239 244 248 246 246 250 254 256 256 259 262 265 268 272 276 276
315 314 305 311 300 268 200 211 225 228 228 226 222 226 230 232 228 229 241 241 235 230 231 234 233 234 239 239 239 243 247 249 250 254 256 258 261 264 267 268 268 269 269 272
322 331 320 313 311 229 305 238 231 226 222 220 226 228 224 221 215 224 225 229 227 225 233 240 243 243 243 244 244 246 248 250 251 253 259 262 264 266 266 265 265 268 271 275
326 345 343 321 287 240 228 251 236 212 210 225 233 232 221 210 211 211 212 216 214 215 220 224 225 227 230 233 236 241 245 248 252 254 255 258 261 263 264 267 271 272 272 274
321 349 356 315 308 292 222 220 197 208 213 220 255 259 200 211 215 209 209 209 208 213 217 222 225 231 237 243 247 251 256 259 263 265 270 274 274 274 273 271 270 271 272 272
315 339 1 330 352 102 161 149 202 204 210 217 218 217 212 209 213 208 215 218 221 228 237 243 249 252 254 256 256 255 257 260 263 262 264 269 270 270 271 274 274 275 277 281
259 294 327 3 9 286 233 215 214 223 232 240 226 223 222 217 215 215 220 225 225 229 226 231 234 237 246 258 264 269 269 269 270 273 273 270 268 271 272 273 275 279 284 288
240 249 263 283 278 140 147 180 210 226 228 229 232 224 210 192 185 185 193 209 230 255 263 267 272 274 275 278 280 281 278 274 274 276 274 271 269 271 276 282 286 288 291 293
242 239 245 251 260 267 264 247 199 173 178 186 194 205 223 229 226 234 247 265 276 278 283 287 282 281 279 274 273 274 273 272 271 268 268 272 277 281 282 283 285 289 291 291
245 242 240 243 245 250 257 261 266 274 269 254 234 216 211 218 226 233 246 259 271 278 282 279 285 283 283 288 283 280 280 271 274 278 278 279 278 280 283 283 287 288 286 290
243 244 244 240 238 241 244 246 243 243 242 242 245 246 245 248 253 260 270 280 284 285 289 296 295 289 286 281 286 281 274 267 269 282 285 286 286 287 285 288 291 282 286 290
243 245 246 245 239 236 238 242 244 248 251 251 251 253 256 259 265 271 276 278 286 285 282 294 298 296 290 285 278 280 278 273 273 280 280 282 282 284 287 289 285 286 292 291
241 243 245 246 246 244 243 244 248 251 253 255 255 259 262 264 267 270 272 276 278 280 284 287 293 293 293 290 277 273 280 280 286 287 281 281 283 284 280 279 286 289 289 289